www.pogodaiklimat.ru

Погода и климат >> Архив погоды >> Мадагаскар >> Antsohihy


ПОГОДА в Antsohihy

  • Прогноз погоды в Antsohihy
  • Монитор погоды в Antsohihy
  • Климат города

АРХИВ ПОГОДЫ в Antsohihy

Время (UTC), дата Ветер
(напр.,м/с)
 
Видим.   Явления Облачность Т
(С)
Тd
(С)
f
(%)
Тe
(С)
Тes
(С)
Комфортность P
(гПа)
Po
(гПа)
Тmin
(С)
Tmax
(С)
R
(мм)
R24
(мм)
S
(см)
03 7.12 штиль 0 30 км осадки на расстоянии 6/3 600 м
[Cb cap Cs]
+25.0 +22.2 84 +32 +33 очень
душно
1012.5 1009.8 17
06 7.12 ЮВ 2 30 км осадки на расстоянии 9/5 600 м
[Cb cap Ac As]
+29.4 +20.4 58 +36 +39 очень
душно
1013.7 1011.0 +26.6 +35.6 17
09 7.12 ЮВ 3 40 км 9/3 600 м
[Cb cap Ci sp]
+32.0 +19.0 46 +37 +47 очень
душно
1013.0 1010.3
12 7.12 ЮЗ 4 40 км 9/5 600 м
[Cb cap Ci sp]
+34.5 +21.6 47 +42 +45 опасность
перегрева
1011.0 1008.3
03 8.12 штиль 0 30 км 4/1 600 м
[Cb cap Ci sp]
+24.6 +21.6 83 +31 +32 очень
душно
1011.0 1008.3
06 8.12 Ю 4 40 км 1/1 600 м
[Cb cap Ci sp]
+30.4 +20.2 54 +37 +44 очень
душно
1012.0 1009.3 +21.4 +34.5
03 9.12 штиль 0 30 км 5/4 600 м
[Cb cap Ci sp]
+25.3 +22.4 84 +33 +33 очень
душно
1011.1 1008.4
06 9.12 Ю 3 40 км 8/3 600 м
[Cb cap Ci sp]
+31.2 +22.8 61 +41 +47 опасность
перегрева
1012.0 1009.3 +26.4 +35.5
03 10.12 штиль 0 30 км осадки на расстоянии 9/9 600 м
[Cb cap]
+26.2 +24.9 93 +37 +38 очень
душно
1012.2 1009.5
06 10.12 Ю 3 30 км осадки на расстоянии 6/4 600 м
[Cb cap Ci sp]
+31.4 +23.5 63 +42 +48 опасность
перегрева
1013.0 1010.3 +26.8 +36.2
09 10.12 Ю 4 30 км осадки на расстоянии 8/5 600 м
[Cb cap Ci sp]
+34.5 +22.9 51 +44 +51 опасность
перегрева
1011.8 1009.1
12 10.12 ЮЗ 4 40 км 6/5 600 м
[Cb cap Ci sp]
+36.0 +20.5 41 +43 +46 опасность
перегрева
1008.8 1006.1
15 10.12 Ю 4 30 км 4/1 600 м
[Cb cap Ci sp]
+31.8 +24.1 64 +44 +44 опасность
перегрева
1009.4 1006.7 +36.0
03 11.12 штиль 0 30 км осадки на расстоянии 9/6 600 м
[Cb cap Cs]
+26.3 +24.8 91 +37 +37 очень
душно
1012.3 1009.6
06 11.12 Ю 3 30 км осадки на расстоянии 8/5 600 м
[Cb cap Ci sp]
+31.6 +20.6 52 +39 +43 очень
душно
1013.4 1010.7 +27.2 +36.0
09 11.12 ЮЗ 4 40 км 9/6 600 м
[Cb cap Ci sp]
+34.8 +23.6 52 +46 +50 опасность
перегрева
1011.4 1008.7
12 11.12 З 4 40 км 9/3 600 м
[Cb cap Ci sp]
+36.2 +23.3 48 +47 +51 опасность
перегрева
1008.7 1006.0
15 11.12 ЮЗ 5 30 км 8/3 600 м
[Cb cap Ci sp]
+31.6 +22.2 58 +41 +41 опасность
перегрева
1009.2 1006.5 +36.2
03 12.12 штиль 0 30 км осадки на расстоянии 9/9 600 м
[Cb cap]
+25.4 +24.2 93 +35 +35 очень
душно
1013.9 1011.2
06 12.12 ЮВ 2 30 км осадки на расстоянии 9/1 600 м
[Cb cap Ac As]
+30.0 +24.4 72 +42 +46 опасность
перегрева
1015.1 1012.4 +27.3 +36.2
09 12.12 Ю 4 30 км осадки на расстоянии 9/5 600 м
[Cb cap Ci sp]
+32.3 +23.9 61 +44 +50 опасность
перегрева
1013.2 1010.5
12 12.12 ЮЗ 5 40 км 9/3 600 м
[Cb cap Ci sp]
+32.5 +22.7 56 +42 +45 опасность
перегрева
1011.4 1008.7
15 12.12 Ю 3 30 км 6/3 600 м
[Cb cap Ci sp]
+30.4 +21.4 59 +38 +38 очень
душно
1012.0 1009.3 +32.5
03 13.12 штиль 0 30 км 5/1 600 м
[Cb cap Ci sp]
+25.5 +24.4 94 +36 +36 очень
душно
1014.2 1011.5
06 13.12 Ю 3 40 км 6/3 600 м
[Cb cap Ac trans Ci sp]
+29.8 +23.7 70 +41 +47 опасность
перегрева
1015.4 1012.7 +27.4 +32.5
09 13.12 ЮЗ 4 40 км 8/3 600 м
[Cb cap Ci sp]
+35.0 +21.7 46 +43 +52 опасность
перегрева
1013.0 1010.3
12 13.12 З 5 40 км 8/5 600 м
[Cb cap Ci sp]
+27.0 +21.8 73 +35 +37 очень
душно
1010.4 1007.7
15 13.12 ЮЗ 4 30 км гроза без осадков 9/5 600 м
[Cb cap Cs]
+32.8 +25.0 64 +47 +47 опасность
перегрева
1011.2 1008.5 +37.0

 

Местоположение метеостанции Antsohihy (Мадагаскар): широта -14.88 долгота 47.98 высота над уровнем моря 23 м.

В архиве по умолчанию представлена погода в Antsohihy за последнюю неделю. Архивные данные за месяц целиком и за предыдущие месяцы, начиная с января 2011 года, Вы можете получить, выбрав интересующий диапазон дат из раскрывающегося списка и нажав кнопку "Ввод!".


*Определитесь, кто Вы:
робот инопланетянин человек

Внимание! Время в таблицах - всемирное. Для получения местного времени необходимо прибавить поправку, которая в Antsohihy равна 3 ч.

Смотрите также архив погоды в соседних городах и на ближайших метеорологических станциях:

Погода в Fascene (Мадагаскар) (178 км)
Погода в Mahajanga (Мадагаскар) (195 км)
Погода в Antalaha (Мадагаскар) (244 км)
Погода в Sambava (Мадагаскар) (245 км)
Погода в Ambohitsilaozana (Мадагаскар) (311 км)
Погода в Nosy Boraha (Мадагаскар) (314 км)
Погода в Antsiranana (Мадагаскар) (316 км)
Погода в Dzaoudzi (Коморские Острова) (372 км)
Погода в Glorieuses Island (Реюньон) (385 км)
Погода в Toamasina (Мадагаскар) (390 км)

Пояснения к столбцам:

Ветер - указаны скорость ветра в м/с - средняя за 10 мин, порывы в срок и между сроками (в фигурных скобках) и направление, откуда дует ветер: С - северный, СВ - северо-восточный, В - восточный, ЮВ - юго-восточный, Ю - южный, ЮЗ - юго-западный, З - западный, СЗ - северо-западный.
Видимость - горизонтальная дальность видимости в метрах или километрах. При видимости от 1 до 10 км при отсутствии осадков обычно наблюдается дымка, при ухудшении видимости до 1 км и менее - туман. В сухую погоду видимость может ухудшаться дымом, пылью или мглою.
Явления - указаны атмосферные явления, наблюдавшиеся в срок или в последний час перед сроком; фигурными скобками обозначены явления, наблюдавшиеся между сроками (за 1-3 часа до срока); квадратными скобками обозначены град или гололедные отложения с указанием их диаметра в мм.
Облачность - указаны через наклонную черту общая и нижняя облачность в баллах и высота нижней границы облаков в метрах; квадратными скобками обозначены формы облаков: Ci - перистые, Cs - перисто-слоистые, Cc - перисто-кучевые, Ac - высококучевые, As - высокослоистые, Sc - слоисто-кучевые, Ns - слоисто-дождевые, Cu - кучевые, Cb - кучево-дождевые. Подробнее классификацию облаков см. в Атласе облаков (PDF).
T - Температура воздуха - температура, измеренная на высоте 2 м над землей.
Td - Температура точки росы - температура, при понижении до которой содержащийся в воздухе водяной пар достигнет насыщения.
f - Относительная влажность воздуха - влажноcть воздуха, измеренная на высоте 2 м над землей.
Te - Эффективная температура - температура, которую ощущает одетый по сезону человек в тени. Характеристика душности погоды. При расчете учитывается влияние влажности воздуха и скорости ветра на теплоощущения человека.
Tes - Эффективная температура на солнце - температура, которую ощущает человек, с поправкой на солнечный нагрев. Характеристика знойности погоды. Зависит от высоты солнца над горизонтом, облачности и скорости ветра. Ночью, в пасмурную погоду, а также при ветре 12 м/с и более поправка равна нулю.
P - Атмосферное давление - приведенное к уровню моря атмосферное давление.
Po - Атмосферное давление - измеренное на уровне метеостанции атмосферное давление.
Tmin - Минимальная температура - минимум температуры воздуха на высоте 2 м над землей.
Tmax - Максимальная температура - максимум температуры воздуха на высоте 2 м над землей.
R - Количество осадков - Количество выпавших осадков за период времени, мм. При наведении курсора мыши на число - период времени, за который выпало указанное количество осадков.
R24 - Количество осадков - Количество выпавших осадков за 24 часа, мм.
S - Снежный покров - Высота снежного покрова, см. При наведении курсора мыши на число - состояние снежного покрова и степень покрытия местности в баллах.